Content
SEND FEEDBACK

Daily
Averages
Monthly
Summary
United States of America

HAZELWOOD, MISSOURI


Home > North America > United States > Missouri
Elevation: 570 feet     Latitude: 38 45N     Longitude: 090 22W

WEATHER
 
SELECT A DAY
Number of Records: 196,446;   Date Range: 1/1/95 - 8/12/14
 
SHARE

PRINT THIS DATA

[ ← Previous Day ]
WEATHER ALMANAC - FEBRUARY 2, 2013
[ Next Day → ]
[ °C ]   °F
Weather ElementAverageHighLow
Temperature33.3 °F42.1 °F (12:54 pm)30 °F (1:54 am)
Dewpoint22.5 °F28.9 °F (10:54 pm)9 °F (1:54 am)
Humidity67.3 %93 % (10:47 pm)40 % (11:54 am)
Barometer30.11 in30.19 in (1:54 am)30.06 in (11:03 pm)
Wind Speed6.7 mph18.4 mph (1:54 pm)
Wind Gust29.9 mph (12:54 pm)
Weather ElementAverage
Visibility6.7 mi
Wind DirectionSSE (159.1 °)

Weather ElementTotal
Precipitation0.44 in
Heating Degree Days29 (Base 65)
Averaged from 34 records on February 2, 2013
WEATHER CONDITIONS BREAKOUT
WIND DIRECTION BREAKOUT
WEATHER BY HOUR - FEBRUARY 2, 2013
[ °C ]   °F
Local TimeTemperatureDewpointHumidityBarometerVisibilityWind DirectionWind SpeedGust SpeedPrecipitationEventsConditions
1:54 AM30.0 °F9.0 °F41 %30.19 in10.0 miSSW (210°)4.6 mphOvercast
2:54 AM30.0 °F9.0 °F41 %30.18 in10.0 miSW (220°)6.9 mphClear
3:54 AM30.0 °F9.0 °F41 %30.16 in10.0 miSW (230°)9.2 mphScattered Clouds
4:54 AM30.9 °F12.0 °F46 %30.15 in10.0 miWSW (240°)6.9 mphMostly Cloudy
5:54 AM30.9 °F12.9 °F47 %30.13 in10.0 miSW (230°)8.1 mphMostly Cloudy
6:54 AM30.9 °F15.1 °F52 %30.12 in10.0 miSW (230°)9.2 mphOvercast
7:54 AM32.0 °F16.0 °F52 %30.12 in10.0 miWSW (240°)8.1 mphMostly Cloudy
8:54 AM33.1 °F17.1 °F52 %30.12 in10.0 miWest (260°)10.4 mphMostly Cloudy
9:54 AM36.0 °F18.0 °F48 %30.13 in10.0 miWNW (290°)11.5 mphMostly Cloudy
10:54 AM39.0 °F19.9 °F46 %30.13 in10.0 miWNW (300°)13.8 mphMostly Cloudy
11:54 AM41.0 °F18.0 °F40 %30.11 in10.0 miWNW (290°)13.8 mph21.9 mphScattered Clouds
12:54 PM42.1 °F21.9 °F45 %30.11 in10.0 miNW (310°)17.3 mph29.9 mphScattered Clouds
1:54 PM41.0 °F24.1 °F51 %30.10 in10.0 miWest (280°)18.4 mph25.3 mphMostly Cloudy
2:54 PM41.0 °F24.1 °F51 %30.12 in10.0 miWNW (290°)16.1 mph28.8 mphOvercast
3:54 PM39.0 °F25.0 °F57 %30.14 in10.0 miWest (280°)16.1 mphOvercast
4:54 PM37.0 °F24.1 °F59 %30.14 in10.0 miWNW (290°)13.8 mphMostly Cloudy
5:54 PM36.0 °F24.1 °F62 %30.17 in10.0 miWNW (290°)13.8 mph29.9 mphMostly Cloudy
6:54 PM35.1 °F25.0 °F67 %30.16 in10.0 miWNW (300°)4.6 mphOvercast
7:54 PM30.0 °F23.0 °F75 %30.17 in10.0 miNW (310°)5.8 mphScattered Clouds
8:54 PM34.0 °F25.0 °F70 %30.13 in10.0 miCalmOvercast
9:54 PM34.0 °F25.0 °F70 %30.12 in10.0 miCalmOvercast
10:28 PM33.8 °F26.6 °F75 %30.09 in2.5 miNorth (10°)4.6 mph0.00 inSnowLight Snow
10:35 PM32.0 °F26.6 °F80 %30.09 in0.8 miNNE (30°)4.6 mph0.00 inSnowLight Snow
10:47 PM30.2 °F28.4 °F93 %30.08 in0.5 miCalm0.03 inFog-SnowSnow
10:54 PM30.9 °F28.9 °F92 %30.10 in0.8 miCalm0.04 inSnowLight Snow
11:03 PM30.2 °F28.4 °F93 %30.06 in0.8 miSSE (150°)3.5 mph0.02 inSnowLight Snow
11:08 PM30.2 °F28.4 °F93 %30.06 in1.0 miCalm0.03 inSnowLight Snow
11:15 PM30.2 °F28.4 °F93 %30.06 in2.0 miCalm0.03 inSnowLight Snow
11:23 PM30.2 °F28.4 °F93 %30.07 in4.0 miCalm0.03 inOvercast
11:27 PM30.2 °F28.4 °F93 %30.07 in2.5 miCalm0.03 inSnowLight Snow
11:30 PM30.2 °F28.4 °F93 %30.07 in1.5 miCalm0.03 inSnowLight Snow
11:36 PM30.2 °F28.4 °F93 %30.07 in0.8 miENE (60°)3.5 mph0.04 inSnowLight Snow
11:44 PM30.2 °F28.4 °F93 %30.06 in0.5 miCalm0.06 inFog-SnowSnow
11:54 PM30.9 °F28.9 °F92 %30.07 in0.2 miENE (70°)4.6 mph0.10 inFog-SnowHeavy Snow
Hourly data recorded from KSUS, located miles away from Hazelwood, Missouri







STORIES FROM OUR PARTNERS